Powrót do katalogu

STARLINK-36848

AktywnyŁącznośćVLEO
NORAD 67936·PAYLOAD·🇺🇸 United States

Wystrzelony Feb 24, 2026 z Vandenberg Space Force Base

Loading…

Następne Przeloty (najbliższe 24 godziny)

TLE

ŚwieżeSource: CelesTrak SupGP

Epoka: Sep 15, 2026, 04:10 UTC

1 67936C 26037E   26258.17409722 -.00014839  00000+0 -53758-3 0  2589
2 67936  43.0004 200.8069 0000894 262.9989 250.2403 15.27580126    19

Śledź STARLINK-36848 w czasie rzeczywistym z AllMySat

Download on the App Store